(2018 RA) |
Classification: Apollo [NEO] SPK-ID: 3827149 |
[ hide orbit diagram ]
For accurate long-term ephemerides, please instead use our Horizons system.This orbit viewer was implemented using two-body methods, and hence should not be used for determining accurate long-term trajectories (over several years or decades) or planetary encounter circumstances.
Orbital Elements at Epoch 2459000.5 (2020-May-31.0) TDB
Reference: JPL 4 (heliocentric ecliptic J2000)
Element | Value | Uncertainty (1-sigma) | Units |
e | .4637771836317947 | 0.00020366 | |
a | 1.882643981247045 | 0.0007165 | au |
q | 1.009516657842942 | 8.1608e-07 | au |
i | 4.428898804363635 | 0.0014418 | deg |
node | 336.4009594865755 | 4.0715e-05 | deg |
peri | 13.49340568997305 | 0.00078599 | deg |
M | 239.6012454955411 | 0.13639 | deg |
tp | 2459316.051479452727 (2021-Apr-11.55147945) | 0.53761 | TDB |
period | 943.5191673745642 2.58 | 0.53863 0.001475 | d yr |
n | .3815502773533851 | 0.00021782 | deg/d |
Q | 2.755771304651149 | 0.0010488 | au |
|
| | Orbit Determination Parameters
Additional Information
|
[ show covariance matrix ]
Physical Parameter Table
Parameter |
Symbol |
Value |
Units |
Sigma |
Reference |
Notes |
absolute magnitude |
H |
26.7 |
|
.21998 |
MPO452087 |
autocmod 2.6n |
|
[ show close-approach data ]
|